ASTRA 3B

Last updated on Sun Dec 21 2025 00:02:53 GMT+0000 (Coordinated Universal Time)

1 36581U 10021A 25354.55590821 .00000160 00000+0 00000+0 0 9996 2 36581 1.0072 85.9482 0002085 185.4487 41.6024 1.00271630 57079
UTC large
Height (km)
Speed (km/s)
/
Latitude / Longitude
Inclination (degrees)
Orbital Period (minutes)
Azimuth
Elevation
Range (km)
Doppler Factor

Next 0 passes for location: London (51.5072 / 0.1276)

Sorry there are no passes over London.